Погода в Алдане

Погода в Алдане : погода сейчас, прогноз погоды и архив. Всё, что Вы хотите узнать о погоде в Алдане!

Хотите узнать прогноз погоды в Алдане? Тогда Вам сюда: Погода в Алдане

Поиск расширенной информации на нашем сайте:

Другие новости

Новости СМИ2

Главная страница сайта

Новости сайта

03.07.2017

Напоминаем, что на нашем специализированном сайте Метеоцентр.Азия вы можете получить высокодетализированные автоматические прогнозы погоды по пунктам России, СНГ и мира в авиационном формате (включающие направление и скорость ветра, видимость, явления погоды, количество и форму облачности, нижнюю и верхнюю границу облачности).

Рекомендуем: Цветы в шляпных коробках премиум букеты в шляпных коробках. 3

Погода в Алдане - сегодня

Время (UTC), дата Ветер
(°,м/с) 
Видим.   Явления Облачность Т
(°С)
Тd
(°С)
f(%) Тe
(°С)
Pmin
(гПа)
dP
(гПа)
Po
(мм)
O2
(г/м3)
Тmin Tmax R s Состояние
почвы
06 18.09.17 030 (СВ) 10 км    10/8 420 м кучево-дожд., верхняя 
[Cb cap|Cs]
+4.3 +1.5 82 +5  1011.3  0.4  698  277           
09 18.09.17 040 (СВ) 20000 м    10/10 540 м кучево-дожд. 
[Cb cap]
+4.2 +1.4 82 +4  1011.4  0.1  698  277           
12 18.09.17 050 (СВ) 10 км    10/10 420 м кучево-дожд. 
[Cb cap]
+3.1 +1 86 +3  1011.7  698  278    +4.6       
18 18.09.17 240 (ЮЗ) 2000 м  ливневой снег  10/10 330 м кучево-дожд. 
[Cb cap]
+0.2 -0.1 98 -1  1012.7  0.7  698  281           
21 18.09.17 тихо ()   1000 м  ливневой снег  10/10 150 м кучево-дожд. 
[Cb cap]
-0.3 -0.6 98 -0  1014  699  282           
00 19.09.17 260 (З) 0500 м  туман{ливн. осадки}  ?/?  
-0.2 -0.5 98 1014.7  0.6  700  282  -0.4    равномерный
мокрый или
старый снег
100% 
03 19.09.17 280 (З) 2000 м  в посл. час туман  10/10 210 м 
[St]
+0.4 -0.2 96 1014.6  0.1  700  281           
06 19.09.17 320 (СЗ) 20000 м  в посл. час ливневой снег{туман}  8/5 600 м кучево-дожд., верхняя 
[Cb cap|Ci fib]
+1.8 +0.7 92 +1  1013.5  -0.5  699  280           
09 19.09.17 350 (С) 20000 м  {ливн. осадки}  8/3 600 м кучево-дожд., верхняя 
[Cb cap|Ci fib]
+2.2 +0 85 +3  1013.8  0.3  699  279           
12 19.09.17 тихо ()   20000 м  {ливн. осадки}  8/6 870 м кучево-дожд., верхняя 
[Cb cap|Ci fib]
+0.3 -0.8 92 1014.8  0.4  700  282    +3.2  0.4     
15 19.09.17 210 (ЮЗ) 20000 м    9/8 630 м кучево-дожд., верхняя 
[Cb cap|Ci fib]
+0.1 -0.5 96 +1  1014.7  -0.1  700  282           
18 19.09.17 тихо ()   20000 м    8/8 900 м кучево-дожд. 
[Cb cap]
-0.2 -0.8 96 -0  1014.2  -0.5  699  282           
21 19.09.17 тихо ()   20000 м    6/3 1000 м верхняя 
[Sc|Ci fib]
-1.5 -2 96 -2  1014.3  -0.3  699  283           
00 20.09.17 тихо ()   10 км    8/5 400 м кучево-дожд., средняя, верхняя 
[Cb cap|Ac trans|Ci fib]
+0.1 -0.5 96 1013.9  0.1  699  282  -1.7        влажная 
03 20.09.17 тихо ()   20000 м    9/6 600 м кучево-дожд., средняя, верхняя 
[Cb cap|Ac trans|Ci fib]
+1.9 -1.8 76 +2  1013.1  -0.3  699  280           
06 20.09.17 360 (С) 20000 м  слаб. ливневой снег  10/10 600 м 
+2.5 -3.4 65 +3  1012.5  -0.4  699  279           
09 20.09.17 150 (ЮВ) 20000 м  {ливн. осадки}  8/5 1000 м верхняя 
[Sc diur, vesp|Ci fib]
+2.5 -3.1 66 +3  1012.6  0.1  699  279           
12 20.09.17 тихо ()   20000 м  {ливн. осадки}  1/1 1000 м 
[Sc diur, vesp]
-2 -2.9 94 -2  1014.2  0.2  699  284    +3  0.0     
15 20.09.17 тихо ()   20000 м    9/8 1200 м средняя 
[Sc|Ac trans]
-1.6 -2.5 94 -2  1014.2  0.1  699  283           
18 20.09.17 тихо ()   20000 м    9/6 1230 м средняя 
[Sc|Ac trans]
-1.5 -2.9 90 -2  1014.1  699  283           
21 20.09.17 тихо ()   20000 м    9/9 1320 м 
[Sc]
-1.4 -3.4 86 -1  1013.8  -0.3  699  283           
00 21.09.17 тихо ()   20000 м    8/8 1300 м 
[Sc]
+0.3 -2.7 80 1013.4  0.1  699  281  -2.5        влажная 
03 21.09.17 030 (СВ) 20000 м    9/3 1000 м средняя, верхняя 
[Cu hum|Ac trans|Ci fib]
+3.6 -6.1 49 +4  1012.6  0.1  699  278           
06 21.09.17 110 (В) 20000 м    10/3 1000 м средняя, верхняя 
[Cu hum|Ac trans|Ci fib]
+5 -6 45 +6  1011.4  -0.6  698  277           
09 21.09.17 350 (С) 20000 м    8/0 средняя, верхняя 
[Ac trans|Ci fib]
+3.9 -4.8 53 +3  1011.4  -0.4  698  278           
Время (UTC), дата Ветер
(°,м/с) 
Видим.   Явления Облачность Т
(°С)
Тd
(°С)
f(%) Тe
(°С)
Pmin
(гПа)
dP
(гПа)
Po
(мм)
O2
(г/м3)
Тmin Tmax R s Состояние
почвы

Для получения пояснительной информации подведите курсор к названию столбца.

ПОГОДА в Алдане - архив

Всё, что Вы хотите узнать о погоде в Алдане - удобно и подробно!

Выберите нужную дату (начиная с 1 января 2015* года) и нажмите кнопку "Найти".
Будут отображены архивные сводки погоды по пункту Алдан, начиная с указанной даты.


Отображать данные в формате CSV (для использования в таблицах Excel)


Внимание! Наш архив погоды предназначен исключительно для личного некоммерческого использования в познавательных целях. Если Вам необходимы официальные справки о состоянии погоды (для производственных, юридических, коммерческих и т.п. целей), обращайтесь в органы Росгидромета.

*Примечание: данная дата относится к архиву по метеостанциям СССР (Россия, СНГ, Балтия).
Архив по метеостанциям Зарубежной Европы и Азии (кроме Китая) хранится 10 дней, по другим регионам земного шара (Китай, Африка, Америка, Австралия, Океания) - 1 день.

Алдан - район местоположения метеостанции


Название, широта, долгота, высота метеостанции:
Алдан 58.6°ш. 125.4°д. 79 м над ур. моря [Российская Федерация]

Дополнительная информация

В oтличие oт бoльшинства пoгoдных сайтoв мы публикуем пoдрoбную метеoинфoрмацию в детальнoм прoфессиoнальнoм фoрмате.

Характеристики температуры и влажнoсти вoздуха измеряются на высoте 2 м в тени вдали oт зданий и деревьев.
Скoрoсть ветра измеряется на высoте 10 м (на урoвне рoста челoвека скoрoсть ветра ниже в 1.5-2 раза). Если метеoстанция нахoдится в гoрoде или в лесу, тo скoрoсть ветра занижена на 2-4 м/с пo сравнению с oткрытым местoм. Скoрoсть ветра над акватoриями крупных рек и oзёр, а также на вершинах хoлмoв на 2-5 м/с выше, чем в oбычных услoвиях.
Атмoсфернoе давление в разных тoчках местнoсти мoжет значительнo oтличаться oт давления на метеoстанции, в зависимoсти oт услoвий рельефа (при пoдъёме на 10 м давление пoнижается примернo на 1 мм рт.ст.).